Temp
13 14 14 14 14 14 14 14 14 14 14 13 13 13 13 13 12 13 13 13 14 14 14 14 14 14 14 13 13 13 13 13 13 13 13 13 13 12 12 12 12 12
13 13 14 14 14 14 14 14 14 14 14 14 14 13 13 13 12 13 13 13 14 14 14 14 14 14 14 14 14 13 13 13 13 13 13 13 13 12 12 12 12 12
13 13 13 14 14 14 14 14 14 14 14 14 14 13 13 13 12 12 13 13 14 14 14 14 14 14 14 14 14 13 13 13 13 13 12 12 12 12 12 12 12 12
13 12 12 13 13 14 14 14 14 14 14 13 13 13 13 13 13 12 13 13 13 14 14 14 14 14 14 14 14 13 13 13 13 12 12 12 12 12 12 12 12 12
14 13 12 13 13 13 14 14 14 14 13 13 13 13 13 13 13 12 13 13 13 13 14 14 14 14 13 13 13 13 13 13 13 13 12 12 12 12 12 12 12 12
14 14 13 12 13 13 13 13 13 13 13 13 13 13 13 13 13 12 13 13 13 13 13 14 14 13 13 13 13 13 13 13 13 13 13 12 12 12 12 12 12 12
14 14 13 12 12 13 13 13 13 13 13 13 13 13 12 12 12 12 13 12 12 13 13 14 14 13 13 13 13 13 13 13 13 13 13 12 12 12 12 12 12 12
14 14 14 13 12 12 13 13 13 13 12 12 12 12 12 12 12 13 13 12 12 13 13 14 14 13 13 13 13 13 12 12 12 12 12 12 12 12 12 12 12 12
14 14 14 14 13 12 12 12 12 13 12 12 12 12 12 12 12 12 12 12 12 13 13 13 13 13 13 13 13 13 13 12 12 12 12 12 12 12 12 12 12 12
13 13 14 13 13 12 12 12 12 12 12 12 13 13 13 12 12 12 12 12 12 13 13 13 13 13 13 13 13 13 13 13 13 12 13 13 13 12 12 12 12 12
13 13 13 13 13 12 12 12 12 12 12 13 13 13 13 13 12 12 12 12 12 12 13 13 13 13 13 13 13 13 13 13 13 13 12 12 12 12 12 12 12 12
13 13 13 13 13 12 11 12 12 12 13 13 14 14 13 12 12 12 12 12 12 12 12 12 13 13 13 13 13 12 12 12 13 13 12 12 12 12 12 12 12 12
13 13 13 13 13 13 12 12 12 13 13 13 13 13 13 12 12 12 12 12 12 12 12 12 12 13 13 13 13 12 12 12 12 12 12 12 12 12 12 12 12 12
13 13 13 13 13 13 13 12 12 13 13 13 13 12 12 12 12 12 12 12 12 12 12 12 12 12 12 12 12 12 12 12 12 12 12 12 12 12 12 12 12 12
12 12 12 12 13 13 13 12 12 12 12 12 12 12 12 12 12 12 12 12 12 12 11 12 12 12 12 12 12 12 12 12 12 12 12 12 12 12 12 12 12 12
11 12 12 12 12 13 13 13 12 12 12 12 12 12 12 12 12 12 12 12 12 12 12 12 12 12 12 12 12 12 12 12 12 12 12 12 12 12 12 12 12 12
11 12 11 11 12 12 13 12 12 12 12 12 12 12 12 12 12 12 12 12 12 12 12 12 12 12 12 12 12 12 12 12 12 12 13 12 12 12 12 12 12 12
11 11 11 11 12 12 12 12 12 12 12 12 12 12 12 12 12 12 12 12 12 12 12 12 12 12 12 12 12 12 12 12 12 12 12 12 12 12 12 12 12 12
10 10 11 11 11 11 12 12 11 11 12 12 12 12 12 12 12 12 12 12 12 12 12 12 12 12 12 12 12 12 12 12 12 12 12 12 12 12 12 12 12 12
10 10 10 11 11 11 11 11 11 11 11 11 12 12 12 12 12 12 12 12 12 12 12 12 12 12 12 12 12 12 12 12 12 12 12 12 12 12 12 12 12 12
10 10 10 10 11 11 11 11 11 11 11 11 11 12 12 12 12 12 12 12 12 12 12 11 11 11 11 11 12 12 12 12 12 12 12 12 12 12 12 12 12 12
9 9 9 10 10 10 10 10 11 11 11 10 11 11 11 12 12 11 11 11 11 11 11 11 11 11 11 11 11 11 11 11 11 11 11 12 12 11 11 11 11 11
7 8 9 9 9 9 10 10 10 10 10 10 10 11 11 11 11 11 11 11 11 11 11 11 11 11 11 11 11 11 11 11 11 11 11 11 11 11 11 11 11 11
6 6 7 7 8 8 8 9 9 9 9 10 10 10 10 10 11 11 11 11 11 11 11 11 11 10 10 10 10 11 11 11 11 11 11 11 11 11 10 10 10 10
6 5 5 6 7 6 6 7 8 9 9 9 10 10 10 10 10 10 10 10 10 10 10 10 10 10 10 10 10 10 10 11 11 11 11 10 10 10 10 10 10 10
6 6 6 6 6 5 5 5 7 8 8 8 9 9 9 9 9 10 10 9 9 10 10 9 9 9 9 9 9 10 10 10 10 10 10 10 10 10 10 10 10 10
Height
1507 1507 1507 1507 1508 1510 1512 1513 1515 1516 1517 1519 1520 1522 1523 1524 1525 1526 1526 1526 1526 1527 1528 1529 1530 1530 1532 1533 1534 1535 1536 1537 1537 1538 1539 1541 1542 1543 1544 1546 1547 1548
1508 1509 1509 1509 1509 1510 1511 1513 1514 1515 1517 1518 1520 1522 1523 1524 1524 1524 1525 1525 1526 1527 1528 1529 1529 1529 1531 1532 1533 1534 1534 1535 1537 1538 1539 1540 1541 1542 1543 1545 1546 1548
1509 1510 1510 1510 1509 1510 1511 1512 1513 1515 1516 1518 1519 1521 1523 1523 1523 1524 1524 1525 1526 1527 1527 1528 1529 1529 1530 1531 1532 1533 1533 1534 1536 1537 1538 1539 1540 1541 1542 1543 1545 1547
1509 1510 1510 1510 1510 1509 1510 1511 1512 1514 1515 1517 1518 1520 1522 1523 1523 1523 1524 1525 1526 1526 1527 1527 1528 1528 1529 1530 1531 1532 1533 1534 1535 1536 1537 1538 1539 1540 1541 1542 1544 1546
1506 1508 1508 1509 1509 1509 1509 1510 1511 1513 1514 1516 1517 1519 1521 1522 1523 1523 1523 1524 1525 1526 1526 1526 1527 1527 1528 1529 1531 1531 1532 1533 1534 1535 1536 1537 1538 1539 1540 1541 1543 1545
1502 1504 1505 1506 1507 1508 1507 1508 1510 1512 1514 1516 1517 1518 1519 1520 1521 1522 1522 1523 1524 1525 1525 1526 1526 1527 1528 1529 1530 1531 1532 1533 1533 1534 1535 1536 1537 1538 1539 1540 1542 1544
1499 1501 1503 1504 1505 1506 1507 1508 1510 1512 1514 1515 1516 1517 1518 1519 1520 1521 1522 1522 1523 1524 1525 1526 1526 1527 1527 1528 1529 1530 1531 1532 1533 1534 1535 1536 1537 1537 1538 1540 1541 1543
1499 1499 1501 1504 1506 1506 1507 1508 1510 1512 1514 1515 1516 1517 1518 1519 1520 1521 1521 1522 1523 1523 1524 1525 1526 1526 1527 1528 1528 1529 1530 1531 1532 1533 1534 1535 1536 1537 1538 1539 1540 1542
1499 1499 1499 1503 1506 1507 1508 1509 1510 1511 1513 1515 1516 1517 1519 1520 1520 1521 1521 1522 1522 1523 1523 1524 1525 1526 1527 1527 1528 1529 1530 1531 1532 1533 1534 1535 1535 1537 1538 1539 1540 1541
1499 1501 1500 1502 1505 1508 1508 1509 1510 1511 1513 1514 1515 1516 1518 1519 1520 1521 1522 1522 1522 1522 1522 1523 1524 1525 1526 1527 1528 1529 1530 1530 1531 1532 1533 1534 1536 1537 1538 1539 1540 1541
1498 1501 1502 1502 1505 1509 1509 1509 1511 1512 1513 1514 1515 1515 1516 1518 1519 1521 1522 1522 1522 1522 1522 1522 1523 1524 1525 1526 1527 1528 1529 1530 1531 1532 1533 1534 1536 1537 1538 1539 1540 1541
1494 1498 1500 1502 1505 1509 1511 1510 1511 1513 1514 1514 1515 1515 1516 1517 1518 1520 1521 1522 1522 1522 1522 1522 1523 1524 1525 1526 1527 1528 1529 1530 1531 1532 1533 1535 1536 1537 1538 1539 1540 1541
1492 1495 1498 1500 1503 1507 1511 1513 1513 1514 1515 1514 1515 1515 1515 1516 1517 1519 1520 1521 1522 1522 1522 1522 1522 1523 1525 1526 1527 1528 1529 1530 1531 1532 1533 1535 1536 1537 1538 1539 1540 1541
1490 1493 1495 1498 1500 1504 1510 1513 1513 1514 1514 1515 1515 1516 1516 1516 1516 1518 1519 1521 1522 1522 1522 1523 1523 1524 1525 1525 1526 1527 1529 1530 1531 1532 1533 1534 1536 1537 1538 1538 1539 1540
1489 1491 1493 1496 1498 1501 1506 1510 1512 1512 1513 1514 1514 1515 1515 1515 1516 1517 1518 1520 1521 1522 1522 1523 1523 1524 1525 1526 1527 1527 1528 1529 1530 1532 1533 1534 1536 1537 1537 1538 1539 1539
1490 1492 1493 1495 1497 1499 1502 1506 1510 1512 1512 1512 1513 1513 1514 1514 1515 1517 1518 1519 1520 1521 1522 1522 1523 1524 1525 1526 1527 1527 1528 1529 1530 1531 1533 1534 1535 1536 1537 1538 1538 1539
1489 1490 1492 1494 1497 1499 1501 1504 1508 1511 1511 1511 1511 1511 1512 1513 1514 1516 1517 1519 1520 1520 1521 1522 1523 1524 1525 1526 1527 1527 1528 1529 1530 1531 1532 1534 1535 1536 1537 1537 1538 1538
1487 1488 1490 1493 1495 1497 1499 1502 1505 1507 1509 1510 1509 1509 1510 1512 1513 1515 1516 1518 1519 1520 1520 1521 1522 1523 1524 1525 1526 1527 1529 1529 1530 1531 1532 1534 1535 1536 1537 1537 1538 1538
1484 1486 1488 1491 1492 1494 1496 1499 1502 1503 1505 1507 1507 1507 1509 1510 1512 1513 1515 1517 1518 1519 1520 1520 1521 1522 1523 1524 1526 1527 1528 1529 1530 1531 1532 1534 1535 1535 1536 1537 1538 1539
1483 1485 1486 1487 1489 1491 1493 1495 1499 1501 1502 1503 1505 1506 1507 1509 1510 1512 1514 1516 1518 1518 1519 1519 1520 1521 1522 1524 1525 1526 1527 1528 1529 1531 1532 1533 1534 1535 1536 1537 1538 1538
1482 1483 1484 1485 1487 1489 1490 1492 1494 1497 1499 1500 1502 1504 1506 1507 1509 1511 1513 1515 1517 1518 1518 1519 1520 1521 1522 1522 1523 1524 1526 1527 1528 1529 1530 1532 1533 1534 1535 1536 1537 1538
1481 1482 1482 1483 1484 1486 1489 1490 1490 1492 1496 1499 1501 1503 1505 1506 1508 1510 1512 1514 1516 1517 1518 1518 1519 1520 1521 1522 1522 1523 1524 1525 1527 1528 1529 1530 1531 1533 1534 1535 1536 1537
1482 1481 1481 1481 1482 1483 1486 1488 1488 1489 1494 1498 1501 1502 1504 1506 1507 1509 1511 1513 1514 1515 1516 1517 1518 1519 1521 1521 1521 1522 1524 1525 1525 1527 1528 1529 1530 1531 1533 1534 1535 1537
1487 1484 1481 1480 1481 1483 1484 1485 1486 1488 1492 1497 1500 1502 1504 1505 1506 1507 1509 1511 1513 1514 1515 1516 1517 1518 1520 1521 1521 1522 1523 1524 1525 1526 1527 1528 1529 1530 1531 1533 1534 1536
1492 1490 1487 1483 1483 1485 1485 1485 1485 1488 1492 1496 1499 1502 1504 1504 1505 1506 1507 1510 1511 1512 1513 1515 1516 1517 1519 1520 1521 1522 1523 1524 1525 1526 1527 1528 1528 1529 1530 1532 1533 1535
1494 1494 1493 1490 1489 1489 1489 1488 1487 1489 1493 1496 1498 1502 1503 1503 1504 1505 1506 1508 1510 1511 1512 1514 1515 1517 1518 1520 1521 1522 1523 1523 1524 1525 1526 1527 1528 1529 1530 1531 1532 1534
Wind_Speed
26 25 24 23 23 24 24 24 23 22 22 22 21 20 19 19 19 18 17 16 15 14 13 13 14 15 16 17 18 18 17 16 17 17 16 17 17 18 19 20 21 21
26 25 24 23 23 23 23 22 21 21 21 20 20 19 18 18 18 18 17 17 16 15 14 14 15 16 17 17 17 18 17 17 18 18 17 17 17 18 19 20 22 22
26 26 25 23 23 23 22 21 21 21 21 20 19 19 19 18 17 17 17 17 16 16 16 15 16 16 16 16 16 17 16 16 17 17 18 18 17 18 18 19 21 22
27 26 24 24 23 22 22 22 23 22 21 21 20 20 20 19 19 18 17 16 16 16 16 16 15 15 14 15 15 15 14 14 15 16 17 17 17 17 18 18 20 21
27 26 24 25 25 24 24 24 24 24 23 23 22 22 21 21 20 19 18 17 16 16 15 15 15 14 14 14 14 14 13 13 14 15 16 17 16 17 17 18 20 21
26 26 25 26 26 26 26 26 26 25 25 24 23 22 21 21 21 21 20 19 17 16 15 14 14 15 15 14 14 15 14 14 15 16 16 16 16 16 17 19 20 21
27 28 26 26 27 27 27 27 27 26 24 23 21 21 21 21 21 21 21 20 17 16 16 15 15 15 15 14 14 15 15 15 16 16 16 16 17 17 17 19 19 19
28 29 27 26 26 26 27 27 27 25 24 22 21 20 20 21 21 21 21 19 16 15 16 16 15 15 15 14 14 15 15 15 16 16 15 16 18 18 17 19 19 19
27 29 28 27 26 26 27 26 26 25 24 23 21 20 21 21 21 21 19 17 16 16 16 16 16 15 15 14 14 14 14 14 14 15 15 16 18 18 17 18 19 20
26 26 27 28 26 26 27 27 26 26 24 23 22 21 21 22 21 19 18 17 17 17 17 16 16 16 15 14 13 13 13 14 14 14 15 15 15 16 16 16 18 19
26 26 26 28 27 27 29 28 27 27 24 23 23 22 21 22 22 19 18 18 17 16 15 14 15 16 15 14 13 12 13 13 14 15 15 15 14 15 15 15 17 17
28 28 27 28 27 27 29 29 27 25 24 24 23 21 21 23 22 20 19 18 16 16 13 12 14 16 15 14 13 13 13 13 14 14 14 15 14 14 14 14 15 15
28 29 30 30 29 28 28 27 25 24 24 24 22 21 23 24 23 21 20 18 17 17 15 14 16 17 16 16 14 13 14 14 14 15 15 15 14 12 12 12 13 13
30 32 33 32 31 30 29 25 24 24 25 24 22 22 25 26 24 22 21 19 19 18 18 19 20 19 17 17 15 14 14 14 14 15 16 16 14 12 11 10 11 11
32 33 33 33 32 32 30 27 26 26 27 25 24 25 27 26 24 22 22 20 20 21 22 22 21 19 17 17 16 14 13 14 14 16 17 17 15 13 12 11 10 10
27 31 32 32 33 32 30 28 28 28 28 27 27 27 28 26 23 23 23 21 22 24 24 23 22 20 17 17 17 16 14 14 14 15 17 17 16 15 15 14 12 11
22 31 32 30 32 33 31 29 30 30 29 29 29 29 28 26 24 23 24 22 22 24 24 22 22 21 19 18 18 18 16 14 14 15 16 17 17 18 17 15 13 12
21 28 31 30 32 34 32 31 32 33 31 30 31 31 29 27 25 24 23 23 23 24 24 23 22 21 21 20 20 21 19 17 16 17 18 19 19 18 17 15 14 13
19 22 28 32 35 35 34 34 35 35 34 33 33 32 29 28 27 25 24 24 24 24 24 23 21 21 22 22 22 22 20 19 18 18 19 20 19 17 16 15 14 13
16 17 21 28 36 38 37 37 37 36 35 35 34 32 30 28 27 27 26 25 24 23 22 23 22 21 21 22 22 21 21 21 21 19 19 19 18 17 16 15 15 14
15 17 17 23 33 39 39 38 38 36 35 36 35 32 30 29 28 27 27 25 23 21 20 21 21 21 21 21 20 20 20 22 23 21 20 20 19 17 17 17 17 16
13 17 18 22 31 38 38 37 38 38 35 34 35 32 30 29 28 27 26 24 21 19 18 18 20 22 22 21 20 20 20 22 22 21 19 19 18 19 19 19 19 18
8 14 17 20 26 33 37 38 37 38 36 34 34 32 31 30 28 26 24 22 21 18 15 16 20 23 23 21 20 21 21 21 20 19 18 18 19 21 22 21 20 19
11 11 15 19 23 26 32 37 37 36 36 35 33 32 31 30 28 27 24 22 20 17 15 16 19 21 22 21 20 20 21 21 20 19 19 20 21 23 23 21 20 19
19 17 17 20 23 23 25 31 36 36 35 34 33 32 31 29 28 26 24 22 20 18 17 17 18 19 19 19 19 19 20 20 20 20 20 21 22 23 22 20 19 18
19 19 20 19 20 21 23 26 32 34 33 32 32 30 28 28 26 25 24 23 21 20 19 18 18 18 18 18 18 19 19 20 20 21 21 21 20 20 20 19 18 17
Wind_Direction
220 214 206 201 199 197 195 192 189 188 188 189 191 190 185 185 189 188 187 191 195 195 192 192 196 199 199 199 200 200 201 198 196 197 202 203 200 199 202 203 204 203
222 217 209 203 199 196 195 192 190 188 186 187 189 185 181 185 190 187 186 191 190 190 190 188 193 198 198 199 201 200 199 196 193 194 199 201 197 199 204 205 203 203
224 219 212 207 202 196 193 190 187 185 182 183 186 184 182 185 188 186 187 190 186 185 188 186 188 194 195 196 199 202 201 197 195 196 198 198 197 200 203 203 203 204
226 223 215 212 207 196 192 189 185 183 181 182 184 185 186 183 184 188 189 190 184 181 186 186 186 190 192 195 197 199 200 198 197 196 195 196 199 202 201 201 204 205
226 225 217 214 208 197 192 189 187 185 183 184 185 185 187 185 182 184 187 188 184 181 184 183 183 187 192 194 194 196 198 199 198 197 196 197 199 201 200 198 199 200
221 221 217 214 209 199 194 190 188 187 184 185 186 184 187 187 181 179 181 184 182 182 184 182 180 184 191 193 192 193 197 200 201 199 198 198 198 199 198 197 196 197
217 216 215 217 210 196 190 188 187 187 185 184 184 184 186 187 182 181 184 183 180 181 182 182 179 181 187 190 190 192 193 198 202 200 198 198 197 195 194 194 195 195
216 213 209 214 212 196 188 188 186 184 185 185 184 186 189 189 186 186 187 185 182 182 181 179 179 181 183 182 185 191 194 194 197 196 196 198 197 194 192 194 197 198
214 213 207 208 212 203 191 189 187 185 185 187 189 190 191 192 191 189 187 184 179 178 180 180 180 183 184 181 181 190 195 193 194 196 197 197 196 197 199 200 201 203
214 217 210 205 211 211 199 192 190 188 189 191 189 186 184 184 186 186 182 177 172 173 177 179 179 181 183 182 180 185 190 189 189 192 194 195 196 198 201 202 202 204
212 216 212 206 209 211 203 195 193 192 193 190 183 177 174 172 173 174 174 174 174 174 174 174 175 177 178 179 177 177 180 183 186 187 187 190 194 195 199 202 202 204
208 210 210 208 209 209 202 197 197 198 194 185 178 173 171 170 170 172 174 177 178 176 173 172 174 174 174 174 173 173 174 175 178 180 179 182 186 188 193 197 199 201
207 208 209 209 209 209 205 201 202 202 189 178 174 170 169 171 173 175 178 183 184 183 182 178 171 168 168 169 168 169 170 170 172 173 172 172 175 180 186 190 192 195
206 207 209 209 208 207 209 207 205 198 184 174 171 170 172 175 175 177 182 187 191 190 184 173 165 164 167 166 163 162 166 168 170 172 169 166 166 169 175 181 183 186
206 206 207 209 207 204 204 204 202 192 181 175 173 173 177 178 178 179 179 179 182 182 176 170 167 170 173 170 167 167 168 170 171 171 171 169 165 160 160 162 164 174
208 205 206 206 204 201 198 198 197 190 182 179 178 179 180 178 177 179 176 172 173 174 173 173 174 176 178 176 178 181 179 179 179 176 175 173 167 161 158 155 158 171
214 207 205 202 200 198 195 193 193 189 186 184 180 179 180 177 174 178 179 179 178 175 174 175 177 180 180 177 180 184 181 177 178 177 176 176 171 166 164 162 163 170
222 210 204 200 198 196 192 190 189 188 188 187 183 182 184 181 180 182 183 183 184 182 178 177 177 181 183 181 178 178 176 172 170 169 170 172 171 169 170 170 169 170
228 217 207 200 196 194 191 188 188 189 189 188 186 186 185 182 182 184 182 181 183 183 182 181 179 179 185 189 186 182 179 176 172 169 169 172 172 174 179 178 177 176
231 229 223 208 197 193 191 189 190 192 191 188 189 188 184 180 180 180 179 179 180 182 182 182 182 181 185 192 195 194 191 186 182 177 174 175 178 181 183 182 183 187
223 226 229 213 199 195 193 191 192 194 191 185 186 187 183 179 178 177 179 179 180 184 186 184 184 183 183 187 194 197 194 192 192 187 180 180 183 187 188 188 189 192
203 210 217 208 197 194 195 193 191 193 192 184 182 184 182 179 178 178 180 182 182 187 192 191 188 184 182 183 186 188 188 190 190 187 182 182 185 188 189 190 190 192
158 182 197 198 188 186 191 193 189 187 186 183 182 182 179 178 178 177 179 182 183 186 192 195 190 185 186 187 187 185 185 186 186 182 180 181 183 184 186 187 187 189
68 112 143 159 163 166 178 187 184 177 175 178 182 182 178 176 176 176 175 177 179 180 183 187 185 182 187 193 194 192 190 188 184 180 177 177 179 179 182 184 184 185
53 62 89 123 140 141 149 165 172 170 169 172 177 178 175 171 172 173 171 169 169 169 171 175 176 175 180 189 193 195 196 194 191 187 182 179 178 179 181 184 185 186
56 54 60 82 105 111 115 134 152 160 163 166 169 171 169 165 166 168 166 163 163 165 167 169 168 166 169 177 183 189 196 198 196 194 192 187 184 186 188 190 191 192